DAL443 KLAX-PHNL

Flight info

Callsign DAL443
Flight time 5h 40m
Altitude 30000
Route SUMMR2 FICKY R578 FITES RABAT V15 OGG V24 LNY JULLE5
Aircraft A21N/M-SDE2E3FGHIRWXY/LB1

Departure

Time 2026-04-25 15:02
Airport Los Angeles International Airport (KLAX)

Arrival

Time 2026-04-25 20:42
Airport Daniel K. Inouye International Airport (PHNL)
Time Latitude Longitude Altitude Speed Heading
2026-04-25 14:45 33.94640 -118.40644 98 ft 0 kts 263°
2026-04-25 14:46 33.94640 -118.40643 98 ft 0 kts 263°
2026-04-25 14:51 33.94641 -118.40643 98 ft 0 kts 263°
2026-04-25 14:55 33.94641 -118.40634 98 ft 4 kts 264°
2026-04-25 14:55 33.94643 -118.40602 98 ft 4 kts 271°
2026-04-25 14:56 33.94640 -118.40570 98 ft 4 kts 288°
2026-04-25 14:56 33.94628 -118.40547 97 ft 4 kts 338°
2026-04-25 14:56 33.94621 -118.40544 98 ft 1 kts 353°
2026-04-25 14:57 33.94636 -118.40546 98 ft 4 kts 353°
2026-04-25 14:58 33.94679 -118.40552 98 ft 8 kts 353°
2026-04-25 14:58 33.94748 -118.40563 99 ft 11 kts 344°
2026-04-25 14:58 33.94823 -118.40598 100 ft 12 kts 349°
2026-04-25 14:58 33.94871 -118.40532 99 ft 13 kts 83°
2026-04-25 14:59 33.94882 -118.40414 99 ft 15 kts 83°
2026-04-25 14:59 33.94895 -118.40287 99 ft 15 kts 83°
2026-04-25 14:59 33.94908 -118.40155 99 ft 16 kts 83°
2026-04-25 14:59 33.94922 -118.40019 98 ft 16 kts 83°
2026-04-25 15:00 33.94937 -118.39944 98 ft 4 kts 57°
2026-04-25 15:00 33.94946 -118.39931 98 ft 1 kts 41°
2026-04-25 15:00 33.94962 -118.39920 99 ft 4 kts 18°
2026-04-25 15:00 33.95006 -118.39916 101 ft 8 kts 353°
2026-04-25 15:01 33.95040 -118.39981 100 ft 15 kts 264°
2026-04-25 15:01 33.95004 -118.40322 103 ft 72 kts 263°
2026-04-25 15:01 33.94917 -118.41171 103 ft 132 kts 263°
2026-04-25 15:01 33.94780 -118.42477 233 ft 169 kts 262°
2026-04-25 15:02 33.94625 -118.43881 984 ft 171 kts 261°
2026-04-25 15:02 33.94464 -118.45349 1545 ft 185 kts 262°
2026-04-25 15:02 33.94339 -118.46935 1928 ft 196 kts 265°
2026-04-25 15:02 33.94289 -118.48632 2300 ft 209 kts 266°
2026-04-25 15:03 33.94232 -118.50432 2694 ft 221 kts 265°
2026-04-25 15:03 33.94104 -118.52373 2943 ft 244 kts 262°
2026-04-25 15:03 33.93936 -118.54488 3421 ft 261 kts 263°
2026-04-25 15:03 33.93763 -118.56692 4095 ft 265 kts 263°
2026-04-25 15:04 33.93588 -118.58910 4861 ft 267 kts 263°
2026-04-25 15:04 33.93410 -118.61131 5658 ft 268 kts 264°
2026-04-25 15:04 33.93236 -118.63358 6487 ft 266 kts 265°
2026-04-25 15:04 33.93066 -118.65565 7223 ft 264 kts 265°
2026-04-25 15:05 33.92897 -118.67763 7916 ft 264 kts 264°
2026-04-25 15:05 33.92726 -118.69962 8578 ft 264 kts 264°
2026-04-25 15:05 33.92558 -118.72137 9215 ft 265 kts 264°
2026-04-25 15:06 33.92214 -118.76588 10290 ft 274 kts 264°
2026-04-25 15:06 33.92031 -118.78938 10521 ft 290 kts 264°
2026-04-25 15:06 33.91838 -118.81419 10709 ft 305 kts 263°
2026-04-25 15:06 33.91704 -118.84032 10895 ft 322 kts 269°
2026-04-25 15:07 33.91765 -118.86797 11084 ft 337 kts 270°
2026-04-25 15:07 33.91858 -118.89674 11266 ft 352 kts 270°
2026-04-25 15:07 33.91923 -118.91643 11381 ft 361 kts 270°
2026-04-25 15:07 33.92052 -118.95752 11803 ft 371 kts 270°
2026-04-25 15:08 33.92115 -118.97807 12091 ft 373 kts 270°
2026-04-25 15:08 33.92080 -119.00929 12536 ft 373 kts 262°
2026-04-25 15:08 33.91457 -119.03951 12983 ft 373 kts 249°
2026-04-25 15:08 33.90437 -119.06829 13472 ft 375 kts 245°
2026-04-25 15:09 33.89364 -119.09695 13940 ft 376 kts 245°
2026-04-25 15:09 33.88292 -119.12576 14352 ft 378 kts 245°
2026-04-25 15:09 33.86155 -119.18400 15140 ft 383 kts 246°
2026-04-25 15:10 33.85082 -119.21342 15582 ft 385 kts 246°
2026-04-25 15:10 33.84002 -119.24303 16029 ft 388 kts 246°
2026-04-25 15:10 33.81824 -119.30269 16946 ft 391 kts 245°
2026-04-25 15:11 33.80628 -119.33215 17378 ft 393 kts 239°
2026-04-25 15:11 33.78986 -119.35841 17788 ft 396 kts 227°
2026-04-25 15:11 33.76892 -119.38043 18218 ft 400 kts 220°
2026-04-25 15:12 33.72453 -119.42136 18917 ft 405 kts 220°
2026-04-25 15:12 33.70219 -119.44207 19278 ft 406 kts 220°
2026-04-25 15:12 33.67986 -119.46290 19627 ft 408 kts 220°
2026-04-25 15:12 33.66499 -119.47681 19858 ft 409 kts 220°
2026-04-25 15:13 33.63481 -119.50502 20314 ft 412 kts 220°
2026-04-25 15:13 33.58949 -119.54741 21023 ft 415 kts 220°
2026-04-25 15:13 33.56658 -119.56881 21396 ft 417 kts 220°
2026-04-25 15:14 33.54369 -119.59021 21766 ft 419 kts 220°
2026-04-25 15:14 33.52068 -119.61167 22128 ft 421 kts 220°
2026-04-25 15:14 33.49749 -119.63328 22481 ft 423 kts 220°
2026-04-25 15:14 33.47448 -119.65470 22818 ft 426 kts 220°
2026-04-25 15:15 33.45074 -119.67681 23152 ft 428 kts 220°
2026-04-25 15:15 33.42750 -119.69842 23461 ft 429 kts 220°
2026-04-25 15:15 33.40388 -119.72036 23792 ft 430 kts 220°
2026-04-25 15:15 33.38022 -119.74236 24097 ft 431 kts 220°
2026-04-25 15:16 33.35659 -119.76427 24468 ft 429 kts 220°
2026-04-25 15:16 33.33302 -119.78612 24810 ft 428 kts 220°
2026-04-25 15:16 33.28608 -119.82963 25522 ft 426 kts 220°
2026-04-25 15:17 33.23922 -119.87298 26172 ft 425 kts 220°
2026-04-25 15:17 33.21589 -119.89454 26504 ft 425 kts 220°
2026-04-25 15:17 33.19254 -119.91608 26836 ft 424 kts 220°
2026-04-25 15:18 33.16921 -119.93765 27173 ft 423 kts 220°
2026-04-25 15:18 33.12279 -119.98049 27817 ft 421 kts 220°
2026-04-25 15:18 33.09965 -120.00181 28172 ft 419 kts 220°
2026-04-25 15:19 33.07658 -120.02303 28499 ft 418 kts 220°
2026-04-25 15:19 33.06131 -120.03707 28712 ft 418 kts 220°
2026-04-25 15:19 33.03060 -120.06533 29133 ft 417 kts 220°
2026-04-25 15:19 33.00767 -120.08640 29425 ft 416 kts 220°
2026-04-25 15:20 32.98478 -120.10744 29724 ft 415 kts 220°
2026-04-25 15:20 32.96190 -120.12846 29973 ft 416 kts 220°
2026-04-25 15:20 32.91599 -120.17047 30048 ft 416 kts 220°
2026-04-25 15:21 32.87047 -120.21218 30026 ft 416 kts 221°
2026-04-25 15:21 32.82458 -120.25419 30018 ft 416 kts 220°
2026-04-25 15:22 32.77883 -120.29592 30021 ft 413 kts 221°
2026-04-25 15:22 32.73324 -120.33747 30027 ft 413 kts 221°
2026-04-25 15:23 32.68770 -120.37894 30027 ft 413 kts 221°
2026-04-25 15:23 32.64172 -120.42075 30028 ft 413 kts 221°
2026-04-25 15:24 32.59641 -120.46195 30023 ft 414 kts 221°
2026-04-25 15:24 32.55811 -120.49671 30026 ft 414 kts 220°
2026-04-25 15:25 32.50503 -120.54484 30015 ft 413 kts 221°
2026-04-25 15:25 32.45949 -120.58608 30029 ft 412 kts 221°
2026-04-25 15:26 32.41396 -120.62733 30030 ft 412 kts 221°
2026-04-25 15:26 32.36843 -120.66843 30030 ft 412 kts 221°
2026-04-25 15:27 32.32287 -120.70948 30033 ft 412 kts 220°
2026-04-25 15:28 32.25458 -120.77095 30033 ft 411 kts 221°
2026-04-25 15:28 32.20901 -120.81193 30034 ft 411 kts 220°
2026-04-25 15:29 32.16352 -120.85274 30030 ft 409 kts 221°
2026-04-25 15:29 32.11816 -120.89339 30038 ft 409 kts 221°
2026-04-25 15:30 32.07282 -120.93403 30040 ft 409 kts 221°
2026-04-25 15:30 32.02743 -120.97461 30052 ft 408 kts 221°
2026-04-25 15:31 31.98221 -121.01500 30043 ft 408 kts 221°
2026-04-25 15:31 31.93707 -121.05530 30041 ft 408 kts 221°
2026-04-25 15:32 31.89211 -121.09537 30046 ft 408 kts 221°
2026-04-25 15:32 31.84693 -121.13556 30044 ft 407 kts 221°
2026-04-25 15:33 31.77898 -121.19594 30049 ft 407 kts 220°
2026-04-25 15:33 31.73375 -121.23607 30047 ft 407 kts 221°
2026-04-25 15:34 31.68866 -121.27601 30048 ft 404 kts 220°
2026-04-25 15:34 31.65138 -121.30901 30048 ft 404 kts 220°
2026-04-25 15:35 31.57895 -121.37781 30036 ft 400 kts 230°
2026-04-25 15:36 31.54307 -121.46407 30058 ft 397 kts 256°
2026-04-25 15:36 31.53162 -121.52747 30057 ft 397 kts 256°
2026-04-25 15:37 31.51993 -121.59060 30066 ft 396 kts 255°
2026-04-25 15:37 31.50800 -121.65359 30062 ft 397 kts 255°
2026-04-25 15:38 31.49595 -121.71676 30056 ft 397 kts 255°
2026-04-25 15:38 31.48387 -121.77991 30057 ft 397 kts 255°
2026-04-25 15:39 31.47180 -121.84292 30060 ft 394 kts 255°
2026-04-25 15:39 31.45975 -121.90564 30060 ft 395 kts 255°
2026-04-25 15:40 31.45174 -121.94713 30061 ft 394 kts 255°
2026-04-25 15:40 31.43555 -122.03096 30062 ft 394 kts 255°
2026-04-25 15:41 31.42341 -122.09350 30065 ft 394 kts 255°
2026-04-25 15:41 31.41126 -122.15592 30063 ft 393 kts 255°
2026-04-25 15:42 31.39908 -122.21831 30063 ft 393 kts 255°
2026-04-25 15:42 31.38688 -122.28066 30061 ft 393 kts 255°
2026-04-25 15:43 31.37476 -122.34258 30065 ft 393 kts 255°
2026-04-25 15:43 31.36257 -122.40479 30065 ft 391 kts 255°
2026-04-25 15:44 31.35037 -122.46683 30064 ft 391 kts 254°
2026-04-25 15:44 31.33812 -122.52877 30069 ft 391 kts 254°
2026-04-25 15:45 31.32583 -122.59075 30069 ft 391 kts 254°
2026-04-25 15:45 31.31761 -122.63217 30081 ft 391 kts 254°
2026-04-25 15:46 31.30123 -122.71443 30072 ft 390 kts 254°
2026-04-25 15:46 31.28890 -122.77620 30071 ft 390 kts 254°
2026-04-25 15:47 31.27655 -122.83786 30075 ft 390 kts 254°
2026-04-25 15:47 31.26414 -122.89963 30091 ft 390 kts 254°
2026-04-25 15:48 31.25180 -122.96095 30076 ft 387 kts 253°
2026-04-25 15:48 31.23946 -123.02211 30076 ft 387 kts 253°
2026-04-25 15:49 31.22708 -123.08334 30077 ft 387 kts 253°
2026-04-25 15:49 31.21465 -123.14456 30076 ft 387 kts 253°
2026-04-25 15:50 31.20222 -123.20563 30077 ft 385 kts 253°
2026-04-25 15:50 31.18989 -123.26610 30077 ft 385 kts 253°
2026-04-25 15:51 31.18157 -123.30678 30079 ft 385 kts 253°
2026-04-25 15:51 31.16499 -123.38774 30080 ft 385 kts 253°
2026-04-25 15:52 31.15247 -123.44851 30076 ft 385 kts 253°
2026-04-25 15:52 31.13994 -123.50926 30080 ft 385 kts 253°
2026-04-25 15:53 31.12734 -123.56992 30077 ft 385 kts 253°
2026-04-25 15:53 31.11409 -123.63049 30075 ft 385 kts 252°
2026-04-25 15:54 31.10307 -123.68077 30084 ft 385 kts 252°
2026-04-25 15:54 31.08762 -123.75142 30081 ft 384 kts 252°
2026-04-25 15:55 31.07665 -123.80168 30087 ft 384 kts 252°
2026-04-25 15:55 31.06342 -123.86210 30082 ft 384 kts 252°
2026-04-25 15:56 31.05014 -123.92248 30083 ft 384 kts 252°
2026-04-25 15:56 31.03682 -123.98284 30084 ft 385 kts 252°
2026-04-25 15:57 31.02348 -124.04319 30085 ft 385 kts 252°
2026-04-25 15:57 31.01011 -124.10359 30085 ft 385 kts 252°
2026-04-25 15:58 30.99671 -124.16398 30091 ft 385 kts 252°
2026-04-25 15:58 30.98327 -124.22435 30095 ft 385 kts 252°
2026-04-25 15:59 30.96979 -124.28473 30091 ft 385 kts 252°
2026-04-25 15:59 30.95630 -124.34512 30090 ft 385 kts 252°
2026-04-25 16:00 30.94506 -124.39525 30094 ft 385 kts 252°
2026-04-25 16:00 30.92931 -124.46535 30098 ft 385 kts 252°
2026-04-25 16:01 30.91575 -124.52561 30090 ft 384 kts 252°
2026-04-25 16:01 30.90215 -124.58579 30092 ft 384 kts 252°
2026-04-25 16:02 30.88853 -124.64596 30093 ft 384 kts 252°
2026-04-25 16:02 30.87490 -124.70605 30095 ft 384 kts 252°
2026-04-25 16:03 30.86124 -124.76617 30098 ft 384 kts 252°
2026-04-25 16:03 30.84758 -124.82619 30096 ft 384 kts 252°
2026-04-25 16:04 30.83387 -124.88619 30097 ft 384 kts 252°
2026-04-25 16:04 30.82014 -124.94616 30098 ft 384 kts 252°
2026-04-25 16:05 30.80637 -125.00617 30103 ft 383 kts 252°
2026-04-25 16:06 30.78577 -125.09577 30099 ft 382 kts 252°
2026-04-25 16:06 30.77196 -125.15554 30099 ft 383 kts 252°
2026-04-25 16:07 30.75815 -125.21530 30096 ft 382 kts 252°
2026-04-25 16:07 30.74437 -125.27481 30101 ft 382 kts 252°
2026-04-25 16:08 30.73048 -125.33448 30100 ft 382 kts 252°
2026-04-25 16:08 30.71664 -125.39401 30089 ft 382 kts 252°
2026-04-25 16:09 30.70274 -125.45352 30099 ft 381 kts 252°
2026-04-25 16:09 30.68883 -125.51293 30106 ft 381 kts 253°
2026-04-25 16:10 30.67490 -125.57243 30097 ft 382 kts 253°
2026-04-25 16:10 30.66092 -125.63189 30105 ft 382 kts 253°
2026-04-25 16:11 30.64702 -125.69096 30100 ft 382 kts 253°
2026-04-25 16:11 30.63300 -125.75041 30094 ft 382 kts 253°
2026-04-25 16:12 30.61896 -125.80983 30100 ft 381 kts 253°
2026-04-25 16:12 30.60488 -125.86920 30104 ft 381 kts 253°
2026-04-25 16:13 30.59079 -125.92856 30104 ft 381 kts 253°
2026-04-25 16:13 30.57665 -125.98790 30109 ft 381 kts 253°
2026-04-25 16:14 30.56250 -126.04722 30108 ft 381 kts 253°
2026-04-25 16:14 30.54833 -126.10651 30101 ft 381 kts 253°
2026-04-25 16:15 30.53414 -126.16580 30113 ft 381 kts 253°
2026-04-25 16:15 30.51991 -126.22500 30112 ft 381 kts 253°
2026-04-25 16:16 30.50562 -126.28431 30110 ft 383 kts 253°
2026-04-25 16:16 30.49125 -126.34381 30103 ft 384 kts 253°
2026-04-25 16:17 30.47697 -126.40297 30112 ft 384 kts 253°
2026-04-25 16:17 30.46254 -126.46251 30109 ft 384 kts 253°
2026-04-25 16:18 30.44808 -126.52204 30110 ft 384 kts 253°
2026-04-25 16:18 30.43359 -126.58158 30109 ft 384 kts 253°
2026-04-25 16:19 30.41904 -126.64111 30106 ft 384 kts 253°
2026-04-25 16:19 30.40450 -126.70065 30105 ft 384 kts 253°
2026-04-25 16:20 30.38265 -126.78994 30113 ft 385 kts 253°
2026-04-25 16:21 30.36066 -126.87950 30114 ft 385 kts 253°
2026-04-25 16:21 30.34594 -126.93919 30113 ft 385 kts 253°
2026-04-25 16:22 30.33120 -126.99885 30109 ft 385 kts 253°
2026-04-25 16:22 30.31640 -127.05866 30111 ft 387 kts 253°
2026-04-25 16:23 30.30155 -127.11854 30114 ft 387 kts 253°
2026-04-25 16:23 30.28678 -127.17800 30114 ft 387 kts 253°
2026-04-25 16:24 30.27184 -127.23785 30114 ft 388 kts 253°
2026-04-25 16:24 30.25679 -127.29817 30118 ft 392 kts 253°
2026-04-25 16:25 30.24159 -127.35894 30116 ft 394 kts 253°
2026-04-25 16:25 30.22636 -127.41976 30114 ft 394 kts 253°
2026-04-25 16:26 30.21108 -127.48056 30109 ft 394 kts 253°
2026-04-25 16:26 30.19575 -127.54141 30115 ft 394 kts 253°
2026-04-25 16:27 30.18040 -127.60230 30116 ft 395 kts 253°
2026-04-25 16:27 30.16497 -127.66317 30115 ft 395 kts 253°
2026-04-25 16:28 30.14955 -127.72402 30118 ft 395 kts 253°
2026-04-25 16:28 30.13408 -127.78500 30119 ft 396 kts 254°
2026-04-25 16:29 30.11857 -127.84604 30120 ft 396 kts 253°
2026-04-25 16:29 30.10299 -127.90705 30119 ft 396 kts 253°
2026-04-25 16:30 30.08747 -127.96763 30110 ft 396 kts 254°
2026-04-25 16:30 30.07176 -128.02904 30119 ft 396 kts 254°
2026-04-25 16:31 30.05622 -128.08965 30119 ft 396 kts 253°
2026-04-25 16:31 30.04053 -128.15066 30113 ft 396 kts 253°
2026-04-25 16:32 30.02481 -128.21160 30114 ft 397 kts 254°
2026-04-25 16:32 30.00902 -128.27269 30113 ft 397 kts 254°
2026-04-25 16:33 29.99320 -128.33386 30118 ft 397 kts 254°
2026-04-25 16:33 29.97739 -128.39487 30121 ft 397 kts 253°
2026-04-25 16:34 29.96151 -128.45593 30114 ft 397 kts 253°
2026-04-25 16:34 29.94558 -128.51704 30126 ft 397 kts 253°
2026-04-25 16:35 29.92964 -128.57805 30114 ft 397 kts 253°
2026-04-25 16:35 29.91369 -128.63913 30117 ft 397 kts 253°
2026-04-25 16:36 29.89779 -128.69980 30121 ft 392 kts 255°
2026-04-25 16:36 29.88208 -128.75953 30119 ft 392 kts 255°
2026-04-25 16:37 29.86624 -128.81966 30130 ft 392 kts 255°
2026-04-25 16:37 29.85038 -128.87979 30125 ft 392 kts 255°
2026-04-25 16:38 29.83452 -128.93983 30118 ft 391 kts 255°
2026-04-25 16:38 29.81866 -128.99975 30122 ft 391 kts 255°
2026-04-25 16:39 29.80277 -129.05964 30122 ft 391 kts 255°
2026-04-25 16:39 29.78685 -129.11948 30120 ft 391 kts 255°
2026-04-25 16:40 29.77099 -129.17913 30126 ft 389 kts 255°
2026-04-25 16:40 29.75509 -129.23870 30126 ft 389 kts 255°
2026-04-25 16:41 29.73916 -129.29825 30121 ft 389 kts 255°
2026-04-25 16:41 29.71522 -129.38743 30114 ft 387 kts 256°
2026-04-25 16:42 29.70204 -129.43647 30122 ft 386 kts 256°
2026-04-25 16:42 29.68613 -129.49553 30122 ft 387 kts 256°
2026-04-25 16:43 29.67023 -129.55458 30120 ft 386 kts 256°
2026-04-25 16:43 29.65432 -129.61350 30113 ft 385 kts 256°
2026-04-25 16:44 29.63842 -129.67225 30122 ft 385 kts 256°
2026-04-25 16:44 29.62249 -129.73094 30124 ft 385 kts 256°
2026-04-25 16:45 29.60654 -129.78962 30123 ft 385 kts 256°
2026-04-25 16:45 29.59057 -129.84817 30116 ft 383 kts 256°
2026-04-25 16:46 29.57465 -129.90655 30124 ft 383 kts 256°
2026-04-25 16:46 29.56140 -129.95499 30124 ft 383 kts 256°
2026-04-25 16:47 29.54268 -130.02328 30133 ft 386 kts 255°
2026-04-25 16:47 29.52649 -130.08216 30124 ft 386 kts 256°
2026-04-25 16:48 29.51027 -130.14098 30122 ft 386 kts 256°
2026-04-25 16:48 29.49422 -130.19940 30128 ft 386 kts 256°
2026-04-25 16:49 29.47803 -130.25818 30096 ft 386 kts 256°
2026-04-25 16:49 29.46173 -130.31711 30126 ft 385 kts 257°
2026-04-25 16:50 29.44564 -130.37528 30123 ft 385 kts 257°
2026-04-25 16:50 29.42937 -130.43379 30127 ft 385 kts 257°
2026-04-25 16:51 29.41307 -130.49234 30113 ft 385 kts 257°
2026-04-25 16:51 29.39954 -130.54086 30126 ft 385 kts 257°
2026-04-25 16:52 29.38046 -130.60910 30129 ft 384 kts 257°
2026-04-25 16:52 29.36415 -130.66746 30130 ft 384 kts 257°
2026-04-25 16:53 29.33957 -130.75496 30135 ft 384 kts 257°
2026-04-25 16:54 29.32314 -130.81321 30133 ft 384 kts 257°
2026-04-25 16:54 29.30685 -130.87156 30133 ft 384 kts 257°
2026-04-25 16:55 29.29029 -130.92990 30114 ft 385 kts 257°
2026-04-25 16:55 29.27378 -130.98822 30130 ft 385 kts 257°
2026-04-25 16:56 29.25738 -131.04649 30137 ft 385 kts 257°
2026-04-25 16:56 29.24088 -131.10479 30134 ft 385 kts 257°
2026-04-25 16:57 29.22429 -131.16310 30122 ft 386 kts 257°
2026-04-25 16:57 29.20766 -131.22161 30135 ft 387 kts 257°
2026-04-25 16:58 29.19110 -131.27970 30142 ft 387 kts 257°
2026-04-25 16:58 29.17433 -131.33823 30138 ft 387 kts 257°
2026-04-25 16:59 29.15757 -131.39684 30128 ft 389 kts 257°
2026-04-25 16:59 29.14068 -131.45561 30136 ft 389 kts 257°
2026-04-25 17:00 29.12381 -131.51439 30144 ft 389 kts 257°
2026-04-25 17:00 29.10688 -131.57312 30127 ft 389 kts 257°
2026-04-25 17:01 29.08988 -131.63206 30139 ft 391 kts 257°
2026-04-25 17:01 29.07283 -131.69102 30142 ft 391 kts 257°
2026-04-25 17:02 29.05573 -131.75003 30140 ft 391 kts 257°
2026-04-25 17:02 29.03861 -131.80910 30129 ft 393 kts 257°
2026-04-25 17:03 29.02136 -131.86840 30140 ft 393 kts 257°
2026-04-25 17:03 29.00414 -131.92774 30142 ft 393 kts 257°
2026-04-25 17:04 28.98681 -131.98703 30140 ft 393 kts 257°
2026-04-25 17:04 28.96957 -132.04604 30145 ft 395 kts 257°
2026-04-25 17:05 28.95215 -132.10553 30147 ft 395 kts 257°
2026-04-25 17:05 28.92584 -132.19512 30148 ft 395 kts 257°
2026-04-25 17:06 28.90838 -132.25441 30145 ft 397 kts 257°
2026-04-25 17:06 28.89080 -132.31418 30145 ft 397 kts 257°
2026-04-25 17:07 28.87312 -132.37383 30147 ft 397 kts 257°
2026-04-25 17:07 28.85535 -132.43355 30136 ft 398 kts 256°
2026-04-25 17:08 28.83762 -132.49345 30167 ft 398 kts 257°
2026-04-25 17:08 28.81990 -132.55318 30153 ft 398 kts 257°
2026-04-25 17:09 28.80212 -132.61290 30152 ft 398 kts 256°
2026-04-25 17:09 28.78421 -132.67270 30155 ft 399 kts 256°
2026-04-25 17:10 28.76630 -132.73258 30156 ft 399 kts 257°
2026-04-25 17:10 28.74859 -132.79251 30154 ft 399 kts 257°
2026-04-25 17:11 28.73067 -132.85236 30153 ft 399 kts 257°
2026-04-25 17:11 28.71275 -132.91211 30158 ft 399 kts 256°
2026-04-25 17:12 28.69481 -132.97198 30157 ft 399 kts 256°
2026-04-25 17:12 28.67675 -133.03176 30140 ft 399 kts 256°
2026-04-25 17:13 28.66463 -133.07185 30156 ft 400 kts 256°
2026-04-25 17:13 28.64053 -133.15161 30156 ft 400 kts 256°
2026-04-25 17:14 28.62234 -133.21155 30159 ft 400 kts 256°
2026-04-25 17:14 28.60415 -133.27154 30155 ft 402 kts 256°
2026-04-25 17:15 28.58585 -133.33165 30159 ft 402 kts 256°
2026-04-25 17:15 28.56762 -133.39143 30160 ft 402 kts 256°
2026-04-25 17:16 28.54933 -133.45154 30143 ft 403 kts 256°
2026-04-25 17:16 28.53093 -133.51179 30166 ft 404 kts 256°
2026-04-25 17:17 28.51254 -133.57208 30169 ft 403 kts 256°
2026-04-25 17:17 28.49386 -133.63227 30149 ft 404 kts 256°
2026-04-25 17:18 28.47544 -133.69270 30163 ft 405 kts 256°
2026-04-25 17:18 28.45691 -133.75325 30166 ft 406 kts 256°
2026-04-25 17:19 28.43819 -133.81372 30164 ft 406 kts 256°
2026-04-25 17:19 28.41954 -133.87429 30163 ft 407 kts 255°
2026-04-25 17:20 28.40079 -133.93494 30172 ft 407 kts 255°
2026-04-25 17:20 28.38196 -133.99565 30172 ft 407 kts 255°
2026-04-25 17:21 28.36316 -134.05638 30163 ft 408 kts 255°
2026-04-25 17:21 28.34437 -134.11683 30170 ft 409 kts 255°
2026-04-25 17:22 28.33163 -134.15750 30178 ft 409 kts 255°
2026-04-25 17:22 28.30634 -134.23850 30157 ft 409 kts 255°
2026-04-25 17:23 28.28731 -134.29943 30173 ft 410 kts 255°
2026-04-25 17:23 28.26801 -134.36049 30174 ft 411 kts 255°
2026-04-25 17:24 28.24874 -134.42145 30164 ft 410 kts 255°
2026-04-25 17:24 28.22974 -134.48262 30171 ft 412 kts 255°
2026-04-25 17:25 28.21053 -134.54383 30177 ft 412 kts 255°
2026-04-25 17:25 28.19122 -134.60500 30176 ft 412 kts 255°
2026-04-25 17:26 28.17186 -134.66623 30173 ft 413 kts 254°
2026-04-25 17:26 28.15260 -134.72713 30176 ft 413 kts 254°
2026-04-25 17:27 28.13314 -134.78840 30194 ft 413 kts 254°
2026-04-25 17:27 28.12019 -134.82921 30184 ft 412 kts 254°
2026-04-25 17:28 28.09435 -134.91045 30180 ft 412 kts 254°
2026-04-25 17:28 28.07808 -134.96150 30180 ft 412 kts 254°
2026-04-25 17:29 28.05858 -135.02249 30173 ft 412 kts 254°
2026-04-25 17:29 28.03900 -135.08368 30181 ft 414 kts 254°
2026-04-25 17:30 28.01932 -135.14497 30178 ft 414 kts 253°
2026-04-25 17:30 27.99950 -135.20623 30182 ft 414 kts 253°
2026-04-25 17:31 27.97986 -135.26708 30184 ft 415 kts 253°
2026-04-25 17:31 27.96011 -135.32829 30159 ft 415 kts 253°
2026-04-25 17:32 27.94045 -135.38983 30182 ft 416 kts 253°
2026-04-25 17:32 27.92068 -135.45132 30183 ft 416 kts 253°
2026-04-25 17:33 27.90080 -135.51271 30183 ft 416 kts 253°
2026-04-25 17:33 27.88087 -135.57414 30186 ft 416 kts 253°
2026-04-25 17:34 27.86085 -135.63555 30190 ft 417 kts 253°
2026-04-25 17:34 27.84083 -135.69697 30189 ft 416 kts 253°
2026-04-25 17:35 27.82101 -135.75806 30188 ft 416 kts 253°
2026-04-25 17:35 27.80099 -135.81936 30196 ft 416 kts 253°
2026-04-25 17:36 27.78091 -135.88069 30192 ft 416 kts 253°
2026-04-25 17:36 27.76083 -135.94207 30185 ft 417 kts 253°
2026-04-25 17:37 27.74062 -136.00357 30196 ft 418 kts 253°
2026-04-25 17:37 27.72038 -136.06510 30195 ft 418 kts 253°
2026-04-25 17:38 27.70344 -136.11659 30195 ft 418 kts 253°
2026-04-25 17:38 27.67983 -136.18806 30195 ft 418 kts 253°
2026-04-25 17:39 27.65949 -136.24954 30196 ft 419 kts 253°
2026-04-25 17:39 27.63909 -136.31119 30201 ft 419 kts 253°
2026-04-25 17:40 27.61866 -136.37280 30195 ft 419 kts 253°
2026-04-25 17:40 27.59821 -136.43438 30194 ft 419 kts 253°
2026-04-25 17:41 27.57772 -136.49593 30193 ft 419 kts 253°
2026-04-25 17:41 27.55719 -136.55760 30182 ft 421 kts 252°
2026-04-25 17:42 27.53654 -136.61929 30196 ft 421 kts 253°
2026-04-25 17:42 27.51585 -136.68107 30192 ft 421 kts 253°
2026-04-25 17:43 27.49525 -136.74273 30193 ft 421 kts 252°
2026-04-25 17:43 27.47468 -136.80399 30173 ft 421 kts 253°
2026-04-25 17:44 27.45393 -136.86574 30193 ft 422 kts 252°
2026-04-25 17:44 27.43311 -136.92752 30195 ft 422 kts 252°
2026-04-25 17:45 27.41579 -136.97881 30193 ft 422 kts 252°
2026-04-25 17:45 27.39141 -137.05103 30194 ft 423 kts 252°
2026-04-25 17:46 27.37045 -137.11282 30182 ft 423 kts 252°
2026-04-25 17:46 27.34951 -137.17466 30198 ft 423 kts 252°
2026-04-25 17:47 27.32850 -137.23654 30199 ft 424 kts 252°
2026-04-25 17:47 27.30747 -137.29844 30198 ft 424 kts 252°
2026-04-25 17:48 27.27579 -137.39124 30203 ft 424 kts 252°
2026-04-25 17:49 27.25479 -137.45274 30200 ft 425 kts 252°
2026-04-25 17:49 27.23360 -137.51473 30201 ft 425 kts 252°
2026-04-25 17:50 27.21237 -137.57661 30204 ft 425 kts 252°
2026-04-25 17:50 27.19105 -137.63857 30200 ft 426 kts 252°
2026-04-25 17:51 27.16973 -137.70061 30204 ft 426 kts 252°
2026-04-25 17:51 27.14841 -137.76261 30195 ft 426 kts 252°
2026-04-25 17:52 27.12701 -137.82457 30204 ft 426 kts 252°
2026-04-25 17:52 27.10558 -137.88658 30206 ft 426 kts 252°
2026-04-25 17:53 27.08411 -137.94857 30202 ft 426 kts 252°
2026-04-25 17:53 27.06260 -138.01059 30203 ft 426 kts 252°
2026-04-25 17:54 27.04106 -138.07256 30195 ft 427 kts 252°
2026-04-25 17:54 27.01949 -138.13460 30202 ft 427 kts 252°
2026-04-25 17:55 26.99777 -138.19666 30204 ft 427 kts 252°
2026-04-25 17:55 26.97618 -138.25860 30206 ft 427 kts 252°
2026-04-25 17:56 26.95457 -138.32030 30206 ft 428 kts 252°
2026-04-25 17:56 26.93281 -138.38229 30186 ft 428 kts 252°
2026-04-25 17:57 26.91074 -138.44431 30203 ft 428 kts 251°
2026-04-25 17:57 26.88894 -138.50649 30200 ft 429 kts 252°
2026-04-25 17:58 26.86717 -138.56871 30203 ft 429 kts 252°
2026-04-25 17:58 26.84518 -138.63084 30206 ft 429 kts 252°
2026-04-25 17:59 26.82319 -138.69291 30204 ft 430 kts 252°
2026-04-25 17:59 26.80112 -138.75510 30204 ft 430 kts 252°
2026-04-25 18:00 26.77904 -138.81727 30205 ft 430 kts 252°
2026-04-25 18:00 26.75692 -138.87940 30212 ft 430 kts 252°
2026-04-25 18:01 26.73479 -138.94151 30213 ft 430 kts 252°
2026-04-25 18:01 26.71278 -139.00320 30202 ft 430 kts 251°
2026-04-25 18:02 26.69061 -139.06537 30204 ft 431 kts 251°
2026-04-25 18:02 26.66829 -139.12755 30212 ft 431 kts 251°
2026-04-25 18:03 26.64599 -139.18978 30208 ft 431 kts 251°
2026-04-25 18:03 26.62358 -139.25195 30207 ft 431 kts 251°
2026-04-25 18:04 26.60124 -139.31406 30201 ft 431 kts 251°
2026-04-25 18:04 26.57883 -139.37633 30207 ft 432 kts 251°
2026-04-25 18:05 26.55639 -139.43868 30204 ft 433 kts 251°
2026-04-25 18:05 26.53390 -139.50100 30210 ft 433 kts 251°
2026-04-25 18:06 26.51130 -139.56331 30206 ft 433 kts 251°
2026-04-25 18:06 26.48864 -139.62570 30207 ft 434 kts 251°
2026-04-25 18:07 26.46595 -139.68808 30191 ft 434 kts 251°
2026-04-25 18:07 26.44331 -139.75003 30206 ft 434 kts 251°
2026-04-25 18:08 26.42043 -139.81252 30207 ft 435 kts 251°
2026-04-25 18:08 26.39768 -139.87504 30210 ft 435 kts 251°
2026-04-25 18:09 26.37497 -139.93765 30203 ft 435 kts 251°
2026-04-25 18:09 26.35208 -140.00017 30198 ft 436 kts 251°
2026-04-25 18:10 26.32907 -140.06274 30207 ft 436 kts 251°
2026-04-25 18:10 26.30607 -140.12533 30204 ft 436 kts 251°
2026-04-25 18:11 26.28312 -140.18793 30208 ft 436 kts 251°
2026-04-25 18:11 26.26009 -140.25055 30207 ft 437 kts 251°
2026-04-25 18:12 26.23697 -140.31308 30204 ft 437 kts 251°
2026-04-25 18:12 26.21370 -140.37564 30195 ft 437 kts 251°
2026-04-25 18:13 26.19071 -140.43790 30209 ft 438 kts 251°
2026-04-25 18:13 26.16747 -140.50063 30199 ft 438 kts 251°
2026-04-25 18:14 26.13251 -140.59468 30209 ft 438 kts 251°
2026-04-25 18:14 26.10917 -140.65735 30205 ft 438 kts 251°
2026-04-25 18:15 26.08582 -140.72011 30201 ft 439 kts 251°
2026-04-25 18:15 26.06237 -140.78293 30200 ft 440 kts 251°
2026-04-25 18:16 26.03889 -140.84573 30199 ft 440 kts 251°
2026-04-25 18:17 26.00359 -140.93990 30198 ft 440 kts 251°
2026-04-25 18:17 25.98006 -141.00264 30209 ft 440 kts 251°
2026-04-25 18:18 25.96044 -141.05480 30198 ft 440 kts 251°
2026-04-25 18:18 25.93679 -141.11758 30204 ft 440 kts 251°
2026-04-25 18:19 25.91311 -141.18035 30203 ft 441 kts 250°
2026-04-25 18:19 25.88939 -141.24313 30201 ft 441 kts 250°
2026-04-25 18:20 25.86568 -141.30589 30195 ft 441 kts 250°
2026-04-25 18:20 25.84195 -141.36865 30186 ft 441 kts 250°
2026-04-25 18:21 25.81810 -141.43146 30208 ft 442 kts 250°
2026-04-25 18:21 25.79424 -141.49423 30203 ft 442 kts 250°
2026-04-25 18:22 25.77034 -141.55705 30195 ft 442 kts 250°
2026-04-25 18:22 25.74639 -141.61984 30209 ft 442 kts 250°
2026-04-25 18:23 25.72258 -141.68223 30201 ft 442 kts 250°
2026-04-25 18:23 25.69857 -141.74506 30197 ft 443 kts 250°
2026-04-25 18:24 25.67450 -141.80796 30196 ft 444 kts 250°
2026-04-25 18:24 25.65035 -141.87090 30197 ft 443 kts 250°
2026-04-25 18:25 25.62623 -141.93381 30200 ft 443 kts 250°
2026-04-25 18:25 25.60203 -141.99669 30201 ft 444 kts 250°
2026-04-25 18:26 25.57780 -142.05953 30204 ft 444 kts 250°
2026-04-25 18:26 25.55356 -142.12234 30198 ft 443 kts 250°
2026-04-25 18:27 25.52934 -142.18505 30195 ft 443 kts 250°
2026-04-25 18:27 25.50505 -142.24780 30196 ft 443 kts 250°
2026-04-25 18:28 25.48075 -142.31055 30203 ft 444 kts 250°
2026-04-25 18:28 25.45640 -142.37334 30202 ft 444 kts 250°
2026-04-25 18:29 25.41975 -142.46752 30198 ft 445 kts 250°
2026-04-25 18:30 25.37072 -142.59330 30202 ft 446 kts 250°
2026-04-25 18:30 25.34614 -142.65623 30204 ft 446 kts 250°
2026-04-25 18:31 25.32150 -142.71912 30203 ft 446 kts 249°
2026-04-25 18:31 25.29701 -142.78159 30201 ft 446 kts 249°
2026-04-25 18:32 25.27234 -142.84451 30201 ft 447 kts 249°
2026-04-25 18:32 25.24759 -142.90747 30198 ft 447 kts 249°
2026-04-25 18:33 25.22278 -142.97045 30202 ft 446 kts 249°
2026-04-25 18:33 25.19804 -143.03326 30195 ft 447 kts 249°
2026-04-25 18:34 25.17320 -143.09616 30199 ft 447 kts 249°
2026-04-25 18:34 25.14832 -143.15905 30187 ft 447 kts 249°
2026-04-25 18:35 25.12342 -143.22199 30199 ft 448 kts 249°
2026-04-25 18:35 25.09844 -143.28496 30198 ft 448 kts 249°
2026-04-25 18:36 25.07357 -143.34755 30196 ft 448 kts 249°
2026-04-25 18:36 25.04849 -143.41054 30201 ft 448 kts 249°
2026-04-25 18:37 25.02337 -143.47351 30196 ft 448 kts 249°
2026-04-25 18:37 24.99829 -143.53638 30189 ft 449 kts 249°
2026-04-25 18:38 24.97317 -143.59942 30196 ft 449 kts 249°
2026-04-25 18:38 24.94797 -143.66244 30198 ft 449 kts 249°
2026-04-25 18:39 24.92269 -143.72543 30197 ft 449 kts 249°
2026-04-25 18:39 24.89744 -143.78843 30197 ft 450 kts 249°
2026-04-25 18:40 24.87208 -143.85143 30197 ft 450 kts 249°
2026-04-25 18:40 24.84672 -143.91440 30191 ft 450 kts 249°
2026-04-25 18:41 24.82135 -143.97747 30198 ft 451 kts 249°
2026-04-25 18:41 24.79587 -144.04057 30197 ft 451 kts 248°
2026-04-25 18:42 24.77898 -144.08238 30195 ft 452 kts 248°
2026-04-25 18:42 24.74481 -144.16679 30196 ft 452 kts 248°
2026-04-25 18:43 24.71924 -144.22989 30192 ft 451 kts 248°
2026-04-25 18:43 24.69364 -144.29299 30189 ft 452 kts 248°
2026-04-25 18:44 24.66793 -144.35622 30189 ft 453 kts 248°
2026-04-25 18:44 24.64236 -144.41902 30189 ft 453 kts 248°
2026-04-25 18:45 24.61644 -144.48263 30193 ft 453 kts 248°
2026-04-25 18:45 24.59065 -144.54570 30188 ft 453 kts 248°
2026-04-25 18:46 24.56498 -144.60850 30189 ft 453 kts 248°
2026-04-25 18:46 24.53917 -144.67157 30183 ft 454 kts 248°
2026-04-25 18:47 24.51324 -144.73483 30187 ft 454 kts 248°
2026-04-25 18:47 24.48726 -144.79808 30189 ft 454 kts 248°
2026-04-25 18:48 24.46125 -144.86134 30186 ft 454 kts 248°
2026-04-25 18:48 24.43519 -144.92456 30187 ft 454 kts 248°
2026-04-25 18:49 24.40913 -144.98776 30184 ft 454 kts 248°
2026-04-25 18:49 24.38305 -145.05094 30176 ft 455 kts 248°
2026-04-25 18:50 24.35691 -145.11425 30184 ft 456 kts 248°
2026-04-25 18:50 24.33076 -145.17755 30186 ft 456 kts 248°
2026-04-25 18:51 24.31328 -145.21984 30186 ft 456 kts 248°
2026-04-25 18:51 24.27840 -145.30409 30179 ft 456 kts 248°
2026-04-25 18:52 24.25222 -145.36719 30180 ft 455 kts 248°
2026-04-25 18:52 24.22597 -145.43040 30176 ft 456 kts 248°
2026-04-25 18:53 24.19964 -145.49358 30177 ft 456 kts 248°
2026-04-25 18:53 24.17346 -145.55633 30178 ft 456 kts 248°
2026-04-25 18:54 24.13391 -145.65102 30175 ft 456 kts 248°
2026-04-25 18:55 24.10739 -145.71446 30185 ft 455 kts 248°
2026-04-25 18:55 24.08101 -145.77754 30178 ft 456 kts 248°
2026-04-25 18:56 24.05475 -145.84014 30181 ft 456 kts 248°
2026-04-25 18:56 24.02828 -145.90311 30179 ft 456 kts 248°
2026-04-25 18:57 24.00180 -145.96606 30183 ft 456 kts 248°
2026-04-25 18:57 23.97531 -146.02897 30175 ft 456 kts 248°
2026-04-25 18:58 23.94881 -146.09180 30177 ft 456 kts 247°
2026-04-25 18:58 23.90895 -146.18610 30181 ft 455 kts 248°
2026-04-25 18:59 23.85566 -146.31188 30177 ft 455 kts 247°
2026-04-25 19:00 23.81564 -146.40621 30174 ft 457 kts 247°
2026-04-25 19:01 23.77557 -146.50045 30172 ft 456 kts 247°
2026-04-25 19:01 23.74877 -146.56330 30171 ft 456 kts 247°
2026-04-25 19:02 23.71307 -146.64695 30174 ft 457 kts 246°
2026-04-25 19:03 23.67725 -146.73071 30172 ft 458 kts 246°
2026-04-25 19:03 23.64122 -146.81479 30175 ft 458 kts 247°
2026-04-25 19:04 23.60093 -146.90869 30166 ft 458 kts 246°
2026-04-25 19:05 23.55140 -147.02390 30162 ft 457 kts 246°
2026-04-25 19:06 23.52431 -147.08673 30166 ft 458 kts 246°
2026-04-25 19:06 23.48365 -147.18092 30166 ft 458 kts 246°
2026-04-25 19:07 23.44292 -147.27503 30169 ft 458 kts 246°
2026-04-25 19:08 23.40222 -147.36905 30160 ft 458 kts 245°
2026-04-25 19:09 23.35219 -147.48419 30160 ft 461 kts 245°
2026-04-25 19:10 23.30635 -147.58942 30160 ft 461 kts 245°
2026-04-25 19:10 23.27887 -147.65243 30159 ft 461 kts 245°
2026-04-25 19:11 23.25138 -147.71544 30155 ft 462 kts 245°
2026-04-25 19:11 23.22376 -147.77854 30156 ft 462 kts 245°
2026-04-25 19:12 23.19617 -147.84151 30154 ft 463 kts 245°
2026-04-25 19:12 23.16841 -147.90478 30157 ft 464 kts 245°
2026-04-25 19:13 23.14066 -147.96809 30160 ft 464 kts 245°
2026-04-25 19:13 23.11286 -148.03137 30159 ft 464 kts 245°
2026-04-25 19:14 23.08516 -148.09419 30153 ft 464 kts 245°
2026-04-25 19:14 23.05728 -148.15738 30152 ft 464 kts 245°
2026-04-25 19:15 23.02941 -148.22055 30154 ft 464 kts 245°
2026-04-25 19:15 23.00146 -148.28379 30153 ft 466 kts 245°
2026-04-25 19:16 22.97339 -148.34723 30151 ft 466 kts 244°
2026-04-25 19:16 22.94532 -148.41058 30150 ft 466 kts 244°
2026-04-25 19:17 22.91726 -148.47393 30148 ft 466 kts 245°
2026-04-25 19:17 22.88912 -148.53730 30149 ft 467 kts 244°
2026-04-25 19:18 22.86089 -148.60061 30150 ft 467 kts 244°
2026-04-25 19:18 22.83267 -148.66400 30146 ft 466 kts 244°
2026-04-25 19:19 22.80442 -148.72732 30142 ft 466 kts 244°
2026-04-25 19:19 22.77617 -148.79062 30144 ft 466 kts 244°
2026-04-25 19:20 22.74787 -148.85388 30144 ft 466 kts 244°
2026-04-25 19:20 22.71956 -148.91712 30145 ft 466 kts 244°
2026-04-25 19:21 22.69140 -148.97992 30143 ft 466 kts 244°
2026-04-25 19:21 22.64880 -149.07470 30144 ft 467 kts 244°
2026-04-25 19:22 22.62041 -149.13790 30141 ft 467 kts 244°
2026-04-25 19:23 22.57771 -149.23261 30140 ft 467 kts 244°
2026-04-25 19:23 22.53501 -149.32720 30139 ft 467 kts 244°
2026-04-25 19:24 22.50647 -149.39030 30139 ft 467 kts 244°
2026-04-25 19:25 22.44935 -149.51640 30137 ft 466 kts 244°
2026-04-25 19:25 22.42081 -149.57932 30139 ft 466 kts 244°
2026-04-25 19:26 22.39222 -149.64225 30140 ft 467 kts 244°
2026-04-25 19:26 22.36355 -149.70523 30137 ft 467 kts 244°
2026-04-25 19:27 22.33974 -149.75751 30139 ft 467 kts 244°
2026-04-25 19:27 22.30618 -149.83112 30136 ft 467 kts 244°
2026-04-25 19:28 22.27751 -149.89397 30134 ft 467 kts 244°
2026-04-25 19:28 22.24868 -149.95694 30136 ft 467 kts 244°
2026-04-25 19:29 22.21991 -150.01979 30132 ft 467 kts 244°
2026-04-25 19:29 22.19109 -150.08268 30136 ft 467 kts 244°
2026-04-25 19:30 22.16243 -150.14512 30139 ft 468 kts 244°
2026-04-25 19:30 22.13356 -150.20791 30138 ft 468 kts 244°
2026-04-25 19:31 22.10462 -150.27086 30134 ft 468 kts 244°
2026-04-25 19:31 22.07565 -150.33373 30135 ft 468 kts 244°
2026-04-25 19:32 22.04669 -150.39647 30132 ft 467 kts 244°
2026-04-25 19:32 22.02263 -150.44859 30133 ft 467 kts 244°
2026-04-25 19:33 21.98904 -150.52134 30134 ft 467 kts 244°
2026-04-25 19:33 21.96005 -150.58398 30132 ft 467 kts 244°
2026-04-25 19:34 21.93101 -150.64658 30133 ft 467 kts 244°
2026-04-25 19:34 21.90198 -150.70917 30130 ft 467 kts 244°
2026-04-25 19:35 21.87291 -150.77174 30130 ft 467 kts 244°
2026-04-25 19:35 21.84379 -150.83425 30131 ft 467 kts 244°
2026-04-25 19:36 21.81472 -150.89669 30132 ft 467 kts 244°
2026-04-25 19:36 21.78555 -150.95928 30129 ft 467 kts 244°
2026-04-25 19:37 21.75636 -151.02176 30129 ft 467 kts 244°
2026-04-25 19:37 21.72715 -151.08421 30127 ft 467 kts 244°
2026-04-25 19:38 21.69790 -151.14665 30130 ft 467 kts 244°
2026-04-25 19:38 21.66863 -151.20915 30131 ft 467 kts 244°
2026-04-25 19:39 21.63941 -151.27149 30128 ft 468 kts 244°
2026-04-25 19:39 21.61022 -151.33355 30126 ft 468 kts 244°
2026-04-25 19:40 21.58090 -151.39592 30134 ft 467 kts 244°
2026-04-25 19:40 21.55156 -151.45823 30133 ft 467 kts 244°
2026-04-25 19:41 21.52178 -151.52024 30131 ft 467 kts 243°
2026-04-25 19:41 21.50163 -151.56160 30118 ft 468 kts 243°
2026-04-25 19:42 21.46155 -151.64409 30124 ft 468 kts 243°
2026-04-25 19:42 21.43141 -151.70612 30134 ft 469 kts 243°
2026-04-25 19:43 21.40121 -151.76830 30126 ft 469 kts 243°
2026-04-25 19:43 21.37096 -151.83040 30117 ft 469 kts 243°
2026-04-25 19:44 21.34086 -151.89205 30127 ft 470 kts 243°
2026-04-25 19:44 21.31035 -151.95453 30113 ft 469 kts 243°
2026-04-25 19:45 21.28032 -152.01602 30121 ft 469 kts 243°
2026-04-25 19:45 21.25003 -152.07797 30125 ft 469 kts 243°
2026-04-25 19:46 21.21964 -152.13994 30124 ft 470 kts 243°
2026-04-25 19:46 21.18921 -152.20197 30126 ft 470 kts 243°
2026-04-25 19:47 21.15871 -152.26407 30117 ft 470 kts 243°
2026-04-25 19:47 21.12830 -152.32595 30120 ft 470 kts 243°
2026-04-25 19:48 21.09780 -152.38796 30127 ft 470 kts 243°
2026-04-25 19:48 21.06731 -152.44995 30117 ft 470 kts 243°
2026-04-25 19:49 21.04687 -152.49137 30119 ft 470 kts 243°
2026-04-25 19:49 21.00619 -152.57376 30116 ft 466 kts 243°
2026-04-25 19:50 20.96072 -152.66574 30118 ft 466 kts 243°
2026-04-25 19:51 20.93037 -152.72700 30119 ft 466 kts 243°
2026-04-25 19:51 20.90007 -152.78814 30116 ft 466 kts 243°
2026-04-25 19:52 20.86966 -152.84933 30109 ft 466 kts 243°
2026-04-25 19:52 20.83927 -152.91050 30122 ft 466 kts 243°
2026-04-25 19:53 20.80917 -152.97180 30122 ft 466 kts 245°
2026-04-25 19:53 20.79842 -153.00387 30110 ft 465 kts 257°
2026-04-25 19:53 20.79431 -153.03808 30118 ft 465 kts 269°
2026-04-25 19:54 20.79540 -153.10710 30116 ft 464 kts 272°
2026-04-25 19:54 20.79670 -153.17614 30110 ft 465 kts 272°
2026-04-25 19:55 20.79757 -153.23392 30115 ft 464 kts 271°
2026-04-25 19:55 20.79858 -153.30248 30109 ft 466 kts 272°
2026-04-25 19:56 20.79939 -153.37164 30118 ft 465 kts 271°
2026-04-25 19:56 20.80023 -153.44085 30113 ft 466 kts 272°
2026-04-25 19:57 20.80110 -153.50998 30117 ft 465 kts 271°
2026-04-25 19:57 20.80188 -153.57904 30113 ft 465 kts 271°
2026-04-25 19:58 20.80276 -153.64816 30108 ft 465 kts 272°
2026-04-25 19:58 20.80338 -153.71713 30116 ft 465 kts 271°
2026-04-25 19:59 20.80404 -153.78625 30110 ft 465 kts 272°
2026-04-25 19:59 20.80479 -153.85528 30113 ft 464 kts 272°
2026-04-25 20:00 20.80560 -153.92446 30123 ft 465 kts 272°
2026-04-25 20:00 20.80602 -153.99354 30126 ft 465 kts 271°
2026-04-25 20:01 20.80689 -154.09716 30121 ft 463 kts 271°
2026-04-25 20:01 20.80742 -154.16601 30120 ft 464 kts 272°
2026-04-25 20:02 20.80794 -154.23484 30113 ft 463 kts 271°
2026-04-25 20:02 20.80851 -154.30330 30119 ft 463 kts 272°
2026-04-25 20:03 20.80920 -154.37219 30113 ft 463 kts 271°
2026-04-25 20:03 20.80961 -154.44087 30122 ft 462 kts 272°
2026-04-25 20:04 20.80992 -154.50972 30120 ft 463 kts 272°
2026-04-25 20:04 20.81027 -154.57838 30115 ft 463 kts 271°
2026-04-25 20:05 20.81053 -154.64724 30115 ft 463 kts 271°
2026-04-25 20:05 20.81080 -154.71599 30114 ft 463 kts 271°
2026-04-25 20:06 20.81114 -154.78476 30114 ft 463 kts 271°
2026-04-25 20:06 20.81154 -154.85354 30113 ft 463 kts 271°
2026-04-25 20:07 20.81197 -154.92269 30116 ft 466 kts 271°
2026-04-25 20:07 20.81223 -154.99185 30113 ft 465 kts 271°
2026-04-25 20:08 20.81253 -155.06097 30115 ft 465 kts 271°
2026-04-25 20:08 20.81260 -155.13007 30110 ft 464 kts 271°
2026-04-25 20:09 20.81253 -155.19910 30116 ft 465 kts 271°
2026-04-25 20:09 20.81276 -155.26818 30116 ft 464 kts 271°
2026-04-25 20:10 20.81304 -155.33725 30112 ft 465 kts 271°
2026-04-25 20:10 20.81313 -155.40624 30115 ft 464 kts 271°
2026-04-25 20:11 20.81314 -155.47478 30115 ft 465 kts 271°
2026-04-25 20:11 20.81469 -155.54372 30117 ft 463 kts 277°
2026-04-25 20:12 20.82197 -155.61216 29861 ft 464 kts 278°
2026-04-25 20:12 20.82571 -155.64640 29477 ft 464 kts 278°
2026-04-25 20:12 20.82818 -155.66951 29189 ft 464 kts 278°
2026-04-25 20:13 20.83305 -155.71505 28603 ft 466 kts 277°
2026-04-25 20:13 20.83671 -155.74948 28169 ft 467 kts 277°
2026-04-25 20:13 20.84030 -155.78403 27740 ft 468 kts 277°
2026-04-25 20:13 20.84397 -155.81868 27308 ft 470 kts 277°
2026-04-25 20:14 20.84755 -155.85337 26889 ft 472 kts 278°
2026-04-25 20:14 20.85119 -155.88824 26488 ft 472 kts 277°
2026-04-25 20:14 20.85488 -155.92315 26114 ft 473 kts 277°
2026-04-25 20:14 20.85856 -155.95814 25748 ft 474 kts 277°
2026-04-25 20:15 20.86229 -155.99325 25399 ft 476 kts 277°
2026-04-25 20:15 20.86596 -156.02848 25054 ft 478 kts 277°
2026-04-25 20:15 20.86972 -156.06383 24712 ft 479 kts 277°
2026-04-25 20:15 20.87356 -156.09921 24374 ft 479 kts 277°
2026-04-25 20:16 20.87737 -156.13450 24036 ft 476 kts 277°
2026-04-25 20:16 20.88118 -156.16957 23699 ft 474 kts 277°
2026-04-25 20:16 20.88491 -156.20459 23303 ft 473 kts 277°
2026-04-25 20:16 20.88842 -156.23947 22907 ft 471 kts 277°
2026-04-25 20:17 20.89183 -156.27422 22518 ft 468 kts 277°
2026-04-25 20:17 20.89518 -156.30873 22138 ft 466 kts 277°
2026-04-25 20:17 20.89861 -156.34298 21765 ft 462 kts 277°
2026-04-25 20:17 20.90198 -156.37706 21390 ft 460 kts 277°
2026-04-25 20:18 20.90402 -156.41110 21017 ft 458 kts 270°
2026-04-25 20:18 20.90040 -156.44495 20650 ft 459 kts 258°
2026-04-25 20:18 20.89239 -156.47780 20325 ft 455 kts 255°
2026-04-25 20:18 20.88373 -156.51029 20006 ft 454 kts 255°
2026-04-25 20:19 20.87521 -156.54227 19705 ft 452 kts 255°
2026-04-25 20:19 20.86662 -156.57501 19390 ft 449 kts 256°
2026-04-25 20:19 20.85835 -156.60704 19095 ft 448 kts 256°
2026-04-25 20:19 20.85019 -156.63858 18804 ft 445 kts 255°
2026-04-25 20:20 20.84195 -156.67038 18518 ft 443 kts 256°
2026-04-25 20:20 20.83374 -156.70208 18208 ft 441 kts 256°
2026-04-25 20:20 20.82559 -156.73355 17878 ft 437 kts 256°
2026-04-25 20:20 20.81750 -156.76482 17544 ft 435 kts 256°
2026-04-25 20:21 20.80944 -156.79592 17230 ft 433 kts 255°
2026-04-25 20:21 20.80140 -156.82682 16911 ft 430 kts 255°
2026-04-25 20:21 20.79342 -156.85752 16597 ft 428 kts 255°
2026-04-25 20:21 20.78548 -156.88805 16278 ft 425 kts 255°
2026-04-25 20:22 20.77762 -156.91844 15969 ft 424 kts 256°
2026-04-25 20:22 20.77527 -156.92874 15853 ft 423 kts 259°
2026-04-25 20:22 20.77195 -156.98029 15330 ft 417 kts 276°
2026-04-25 20:22 20.77711 -157.01057 15021 ft 413 kts 287°
2026-04-25 20:23 20.78604 -157.03963 14730 ft 410 kts 291°
2026-04-25 20:23 20.79575 -157.06815 14421 ft 408 kts 291°
2026-04-25 20:23 20.80538 -157.09662 14114 ft 406 kts 291°
2026-04-25 20:23 20.81479 -157.12503 13796 ft 405 kts 290°
2026-04-25 20:24 20.82393 -157.15341 13461 ft 402 kts 290°
2026-04-25 20:24 20.83301 -157.18159 13120 ft 400 kts 290°
2026-04-25 20:24 20.84206 -157.20960 12786 ft 397 kts 290°
2026-04-25 20:24 20.85101 -157.23747 12453 ft 395 kts 290°
2026-04-25 20:25 20.85990 -157.26517 12137 ft 393 kts 290°
2026-04-25 20:25 20.86880 -157.29269 11821 ft 391 kts 290°
2026-04-25 20:25 20.87760 -157.32008 11508 ft 389 kts 290°
2026-04-25 20:25 20.88631 -157.34739 11196 ft 387 kts 291°
2026-04-25 20:26 20.89503 -157.37456 10889 ft 385 kts 291°
2026-04-25 20:26 20.90368 -157.40152 10586 ft 379 kts 291°
2026-04-25 20:26 20.91192 -157.42739 10289 ft 366 kts 291°
2026-04-25 20:26 20.92000 -157.45263 10018 ft 353 kts 291°
2026-04-25 20:27 20.92772 -157.47681 9953 ft 334 kts 291°
2026-04-25 20:27 20.93501 -157.49960 9938 ft 314 kts 291°
2026-04-25 20:27 20.94188 -157.52099 9938 ft 294 kts 291°
2026-04-25 20:27 20.94833 -157.54113 9946 ft 281 kts 291°
2026-04-25 20:28 20.95468 -157.56094 9959 ft 281 kts 291°
2026-04-25 20:28 20.96097 -157.58066 9969 ft 281 kts 291°
2026-04-25 20:28 20.96728 -157.60027 9728 ft 277 kts 291°
2026-04-25 20:28 20.97354 -157.61975 9269 ft 277 kts 291°
2026-04-25 20:29 20.97977 -157.63924 8836 ft 277 kts 291°
2026-04-25 20:29 20.98598 -157.65872 8386 ft 276 kts 292°
2026-04-25 20:29 20.99220 -157.67818 7961 ft 276 kts 292°
2026-04-25 20:29 20.99838 -157.69763 7553 ft 276 kts 291°
2026-04-25 20:30 21.00457 -157.71705 7121 ft 276 kts 291°
2026-04-25 20:30 21.01080 -157.73660 6679 ft 278 kts 291°
2026-04-25 20:30 21.01697 -157.75607 6359 ft 274 kts 291°
2026-04-25 20:30 21.02305 -157.77516 6080 ft 268 kts 291°
2026-04-25 20:31 21.02900 -157.79387 5796 ft 263 kts 290°
2026-04-25 20:31 21.03489 -157.81241 5375 ft 264 kts 291°
2026-04-25 20:31 21.04083 -157.83108 4960 ft 265 kts 291°
2026-04-25 20:31 21.04669 -157.84969 4611 ft 263 kts 291°
2026-04-25 20:32 21.05257 -157.86822 4223 ft 263 kts 292°
2026-04-25 20:32 21.05846 -157.88672 3992 ft 262 kts 292°
2026-04-25 20:32 21.06431 -157.90513 3956 ft 260 kts 292°
2026-04-25 20:32 21.06989 -157.92278 3941 ft 240 kts 292°
2026-04-25 20:33 21.07508 -157.93971 3958 ft 240 kts 288°
2026-04-25 20:33 21.07763 -157.95747 3970 ft 242 kts 280°
2026-04-25 20:33 21.07982 -157.97537 3980 ft 243 kts 283°
2026-04-25 20:33 21.08080 -157.98136 3981 ft 242 kts 284°
2026-04-25 20:34 21.08780 -158.01037 3936 ft 241 kts 292°
2026-04-25 20:34 21.09359 -158.02706 3852 ft 239 kts 297°
2026-04-25 20:34 21.10048 -158.04317 3758 ft 237 kts 301°
2026-04-25 20:34 21.10837 -158.05858 3638 ft 234 kts 306°
2026-04-25 20:35 21.11704 -158.07294 3519 ft 231 kts 309°
2026-04-25 20:35 21.12657 -158.08661 3394 ft 224 kts 314°
2026-04-25 20:35 21.13619 -158.09861 3342 ft 201 kts 318°
2026-04-25 20:35 21.14586 -158.10901 3243 ft 195 kts 325°
2026-04-25 20:36 21.15661 -158.11752 3123 ft 190 kts 333°
2026-04-25 20:36 21.16853 -158.12139 2904 ft 176 kts 11°
2026-04-25 20:36 21.17886 -158.11532 2824 ft 172 kts 42°
2026-04-25 20:36 21.18753 -158.10537 2886 ft 180 kts 54°
2026-04-25 20:37 21.19440 -158.09517 2870 ft 160 kts 52°
2026-04-25 20:37 21.20198 -158.08600 2805 ft 177 kts 51°
2026-04-25 20:37 21.20901 -158.07624 3018 ft 153 kts 54°
2026-04-25 20:37 21.21547 -158.06698 2975 ft 158 kts 54°
2026-04-25 20:38 21.22210 -158.05767 2935 ft 158 kts 53°
2026-04-25 20:38 21.22877 -158.04854 2815 ft 154 kts 54°
2026-04-25 20:38 21.23514 -158.03927 2614 ft 155 kts 53°
2026-04-25 20:38 21.24154 -158.03013 2392 ft 150 kts 54°
2026-04-25 20:39 21.24765 -158.02143 2219 ft 142 kts 54°
2026-04-25 20:39 21.25324 -158.01349 2047 ft 129 kts 54°
2026-04-25 20:39 21.25850 -158.00601 1865 ft 126 kts 55°
2026-04-25 20:39 21.26028 -158.00348 1804 ft 126 kts 55°
2026-04-25 20:40 21.26922 -157.99078 1496 ft 127 kts 53°
2026-04-25 20:40 21.27453 -157.98322 1322 ft 126 kts 55°
2026-04-25 20:40 21.27983 -157.97570 1145 ft 128 kts 52°
2026-04-25 20:40 21.28340 -157.97062 1037 ft 128 kts 51°
2026-04-25 20:41 21.29057 -157.96042 797 ft 128 kts 52°
2026-04-25 20:41 21.29414 -157.95533 690 ft 126 kts 52°
2026-04-25 20:41 21.30119 -157.94530 470 ft 126 kts 52°
2026-04-25 20:41 21.30650 -157.93770 307 ft 128 kts 53°
2026-04-25 20:42 21.31009 -157.93255 177 ft 127 kts 52°
2026-04-25 20:42 21.31538 -157.92509 41 ft 125 kts 53°
2026-04-25 20:42 21.32015 -157.91835 29 ft 89 kts 53°
2026-04-25 20:42 21.32262 -157.91484 29 ft 18 kts 53°
2026-04-25 20:43 21.32352 -157.91401 29 ft 18 kts 26°
2026-04-25 20:43 21.32418 -157.91370 29 ft 7 kts 21°
2026-04-25 20:43 21.32470 -157.91352 29 ft 10 kts 17°
2026-04-25 20:43 21.32548 -157.91334 29 ft 13 kts 10°
2026-04-25 20:44 21.32642 -157.91317 29 ft 15 kts
2026-04-25 20:44 21.32739 -157.91303 29 ft 11 kts 346°
2026-04-25 20:44 21.32774 -157.91376 29 ft 13 kts 271°
2026-04-25 20:44 21.32774 -157.91480 29 ft 15 kts 270°
2026-04-25 20:45 21.32774 -157.91598 29 ft 17 kts 270°
2026-04-25 20:45 21.32774 -157.91721 29 ft 15 kts 269°
2026-04-25 20:45 21.32787 -157.91836 29 ft 17 kts 319°
2026-04-25 20:45 21.32883 -157.91842 29 ft 14 kts 11°
2026-04-25 20:46 21.32967 -157.91826 29 ft 12 kts
2026-04-25 20:46 21.33045 -157.91813 29 ft 7 kts
2026-04-25 20:46 21.33075 -157.91808 29 ft 3 kts
2026-04-25 20:46 21.33081 -157.91807 29 ft 0 kts
2026-04-25 20:49 21.33080 -157.91807 29 ft 0 kts
2026-04-25 20:53 21.33079 -157.91807 29 ft 0 kts
2026-04-25 20:59 21.33078 -157.91807 29 ft 0 kts
2026-04-25 21:04 21.33077 -157.91807 29 ft 0 kts
2026-04-25 21:10 21.33076 -157.91807 29 ft 0 kts
2026-04-25 21:15 21.33075 -157.91807 29 ft 0 kts
2026-04-25 21:17 21.33075 -157.91808 29 ft 0 kts
2026-04-25 21:20 21.33074 -157.91808 29 ft 0 kts
2026-04-25 21:25 21.33073 -157.91808 29 ft 0 kts
2026-04-25 21:30 21.33072 -157.91808 29 ft 0 kts
2026-04-25 21:35 21.33071 -157.91808 29 ft 0 kts
2026-04-25 21:38 21.33070 -157.91808 29 ft 0 kts
2026-04-25 21:40 21.33069 -157.91808 29 ft 0 kts
2026-04-25 21:42 21.33069 -157.91809 29 ft 0 kts
2026-04-25 21:44 21.33068 -157.91809 29 ft 0 kts